Location: St. Louis
(38.6270°N, 90.1994°W)
Time: 08:16:01
(UTC-06:00)

SR - Pass Details

Date: 03 December 2021
Orbit: 582 x 872 km, 66.7° (Epoch: 21 January)

Event Time Altitude Azimuth Distance (km) Brightness Sun altitude
Rises 09:43:44 0° 313° (NW) 2,850 ? 22.3°
Reaches altitude 10° 09:46:30 10° 295° (WNW) 1,975 ? 22.6°
Maximum altitude 09:49:32 18° 251° (WSW) 1,543 ? 22.9°
Drops below altitude 10° 09:52:41 10° 208° (SSW) 2,063 ? 23.2°
Sets 09:55:40 0° 190° (S) 3,029 ? 23.5°
